Starlink 4499

operational
NORAD ID: 53402 Int'l Des: 2022-097 Owner: SPXS Country: US Constellation: starlink
LEOCIRCULAR

Starlink 4499について

説明を読み込み中...

リアルタイム位置

3D地球を読み込み中...

次回通過

高度履歴

Altitude vs Time

uPlot chart will show altitude changes over time

軌道要素

1 53402U 22097Q 25302.44296544 .00000811 00000-0 69075-4 0 9995
2 53402 53.2188 353.3100 0001513 97.9623 262.1540 15.08837815178703
Epoch: Oct 29, 2025 • Age: 13 hours

現在のステータス

高度 551.0 km
速度 7.59 km/s
衛星直下点 -33.14°S, 64.01°W
打ち上げ日 Aug 10, 2022
運用期間 3.2 years
タイプ internet

技術仕様

分類 Payload
質量 297.00 kg
乾燥質量 275.00 kg
総質量 297.00 kg
長さ 0.20 m
直径 2.80 m
スパン 9.00 m
形状 Box + pan
製造者 SPXS
バスタイプ Starlink
フェーズステータス In Orbit
所有者/国 SPXS/US

大規模コンステレーション

Loading constellations...